Regional Weather Roundup
Issued by NWS

Home | Current Version | Previous Version | Graphics & Text | Print | Product List | Glossary On
Versions: 1 2 3 4 5 6 7 8 9 10 11 12 13 14 15 16 17 18 19 20 21 22 23 24 25 26 27 28 29 30 31 32 33 34 35 36 37 38 39 40 41 42 43 44 45 46 47 48 49 50
000
ASUS43 KLOT 261308
RWRIL

ILLINOIS REGIONAL WEATHER ROUNDUP
NATIONAL WEATHER SERVICE CHICAGO/ROMEOVILLE IL
800 AM CDT TUE JUL 26 2016

NOTE: "FAIR" INDICATES FEW OR NO CLOUDS BELOW 12,000 FEET WITH NO
SIGNIFICANT WEATHER AND/OR OBSTRUCTIONS TO VISIBILITY.

* THESE STATIONS ARE NOT UNDER NWS QUALITY CONTROL. THEY ALSO MAY NOT
  REPORT WEATHER SUCH AS PRECIPITATION OR FOG.

ILZ001-002-007-009-015-016-024-261400-
NORTHWEST ILLINOIS

CITY           SKY/WX    TMP DP  RH WIND       PRES   REMARKS
MOLINE         SUNNY     75  66  73 CALM      30.07S
STERLING*      SUNNY     72  67  84 E5        30.07F
SAVANNA*       SUNNY     71  66  84 N3        30.07S
$$

ILZ003-004-008-010-011-017-018-261400-
NORTH CENTRAL ILLINOIS

CITY           SKY/WX    TMP DP  RH WIND       PRES   REMARKS
ROCKFORD       SUNNY     80  68  66 CALM      30.09S HX  83
FREEPORT*      SUNNY     68  64  88 CALM      30.10F
ROCHELLE*      SUNNY     72  67  84 NE5       30.08F
DE KALB*       SUNNY     73  67  79 NE5       30.09S
$$

ILZ005-006-012>014-019>023-261400-
NORTHEAST ILLINOIS

CITY           SKY/WX    TMP DP  RH WIND       PRES   REMARKS
CHICAGO-OHARE  MOSUNNY   79  65  62 CALM      30.06F HX  81
CHICAGO-MIDWAY PTSUNNY   78  63  59 CALM      30.06S HX  80
AURORA         SUNNY     75  68  78 N3        30.07F
LANSING*       MOSUNNY   75  65  70 CALM      30.07F
JOLIET*        MOSUNNY   76  71  84 E3        30.07S
WAUKEGAN       SUNNY     76  65  68 CALM      30.06F
DUPAGE AIRPORT SUNNY     76  66  71 N5        30.07S
KANKAKEE*      SUNNY     74  68  82 CALM      30.07S
WHEELING       SUNNY     77  65  66 N3        30.07F
MORRIS*        MOSUNNY   72  68  87 CALM      30.05F
ROMEOVILLE*    MOSUNNY   74  65  74 CALM      30.07S
NORTHERLY ISL    N/A     74  65  73 N2          N/A
$$

LMZ740>746-261400-
SOUTHERN LAKE MICHIGAN

STATION/POSITION SKY/WX   TEMP    WIND        PRES    VSBY  WAVE
                          AIR SEA DIR/SP/G                  HT/PER
                          (F)     (DEG/KT/KT) (MB)    (MI)  (FT/S)
SOUTHERN BUOY              73 73  290/  4/  4 1017.3R
WILMETTE HARBOR            70 68  340/  2/  2   N/A           0
HARRISON CRIB              73     350/  3/  4   N/A
BURNHAM HARBOR             74      10/  2/  4   N/A
CALUMET HARBOR             74        CALM     1017.6R
BURNS HARBOR               73        CALM     1018.6R
MICHIGAN CITY              73      90/  1/  2   N/A
MICHIGAN CITY 6N           76 74   CALM  /  2   N/A           0
ST. JOSEPH                 74 75  110/  2/  2 1017.9F         0
$$

ILZ025>027-034>036-040-047-049-050-058-095>099-261400-
WEST-CENTRAL ILLINOIS

CITY           SKY/WX    TMP DP  RH WIND       PRES   REMARKS
QUINCY         SUNNY     73  68  84 NE7       30.06S
GALESBURG*     SUNNY     72  67  84 CALM      30.08R
MACOMB*        SUNNY     71  67  89 CALM      30.09S
JACKSONVILLE*  MOSUNNY   75  70  84 N3        30.06R
PITTSFIELD*    PTSUNNY   74  70  87 N3        30.07S
$$

ILZ028>032-037-038-041>044-048-051>054-059>061-261400-
CENTRAL ILLINOIS

CITY           SKY/WX    TMP DP  RH WIND       PRES   REMARKS
BLOOMINGTON    SUNNY     73  69  87 NE6       30.08R
DECATUR        CLOUDY    77  70  79 NE8       30.06R
PEORIA         MOSUNNY   76  69  79 E6        30.06S
LACON*         SUNNY     72  69  89 CALM      30.05F
LINCOLN*       SUNNY     74  71  88 CALM      30.06R
SPRINGFIELD    SUNNY     77  69  76 NE3       30.06R
TAYLORVILLE    CLOUDY    74  71  89 MISG      30.05R
$$

ILZ033-039-045-046-055>057-062-063-261400-
EAST-CENTRAL ILLINOIS

CITY           SKY/WX    TMP DP  RH WIND       PRES   REMARKS
CHAMPAIGN      CLOUDY    75  64  68 NE6       30.07R
MATTOON        CLOUDY    73  71  93 NE7       30.04S
PARIS*         CLOUDY    72  71  95 S3        30.07R
$$

ILZ079-100>102-261400-
SOUTHWEST ILLINOIS

CITY           SKY/WX    TMP DP  RH WIND       PRES   REMARKS
ALTON          PTSUNNY   75  72  88 NE7       30.04R
CAHOKIA*       CLOUDY    80  74  81 N6        30.03S HX  85
SPARTA*        PTSUNNY   77  75  94 CALM      30.04S
$$

ILZ064>066-069>071-074>076-080>082-084>086-088>090-092>094-261400-
SOUTH-CENTRAL ILLINOIS

CITY           SKY/WX    TMP DP  RH WIND       PRES   REMARKS
CARBONDALE     CLOUDY    78  75  90 VRB3      30.03R FOG     HX  81
CAIRO*         PTSUNNY   78  77  99 W3        30.03R FOG
EFFINGHAM*     MOSUNNY   72  72 100 E3        30.06R
MARION         CLOUDY    79  77  94 SW6       30.03S FOG     HX  83
MT. VERNON     CLOUDY    75  72  88 CALM      30.03R VSB<1/4
CENTRALIA*     CLOUDY    77  75  93 E3        30.03R
SALEM*         CLOUDY    75  72  89 CALM      30.04R
METROPOLIS*    SUNNY     79  76  89 CALM      30.04R HX  84
$$

ILZ067-068-072-073-078-083-087-091-261400-
SOUTHEAST ILLINOIS

CITY           SKY/WX    TMP DP  RH WIND       PRES   REMARKS
LAWRENCEVILLE  PTSUNNY   77  76  96 S5        30.04R
FLORA*         CLOUDY    74  71  91 NE3       30.04R
FAIRFIELD*     CLOUDY    75  75 100 CALM      30.03R FOG
HARRISBURG*    CLOUDY    76  76 100 CALM      30.03R
ROBINSON*      CLOUDY    76  76  98 W12G17    30.05R FOG
CARMI*         CLOUDY    75  75 100 CALM      30.03R
$$

ABBREVIATIONS USED IN REMARKS
   TC - TEMPERATURE IN CELSIUS
  WCI - WIND CHILL INDEX
   HX - HEAT INDEX
  VSB - VISIBILITY
$$





USA.gov is the U.S. government's official web portal to all federal, state and local government web resources and services.